THEMIS D

Last updated on Thu Nov 21 2024 00:02:35 GMT+0000 (Coordinated Universal Time)

1 30797U 07004D 24325.56771310 -.00000444 00000+0 00000+0 0 9994 2 30797 3.4464 252.5651 8398087 354.0045 29.0996 0.87838397 36039
UTC large
Height (km)
Speed (km/s)
/
Latitude / Longitude
Inclination (degrees)
Orbital Period (minutes)
Azimuth
Elevation
Range (km)
Doppler Factor

Next 0 passes for location: London (51.5072 / 0.1276)

Sorry there are no passes over London.